STARLINK-5700 (55607 NORAD) Tracking and Keplerian Element Data

This shows tracking and keplerian element data for the satellite.

Feedback or suggestion? Click here.




ElementValue
Catalog55607
NameSTARLINK-5700
Epoch Orbit660
Epoch Day85.25001157
Epoch Year2023
RAAN103.8539
Inclination42.998
Eccentricity0.0001439
Argument of Perigee269.3561
Mean Anonmoly99.3941
Mean Motion15.48932265
Decay Rate-0.00056225
L11 55607U 23020AQ 23085.25001157 -.00056225 00000+0 -10172-2 0 9993
L22 55607 42.9980 103.8539 0001439 269.3561 99.3941 15.48932265 6607



Live tracking and technical data element details for STARLINK-5700 (NORAD 55607). STARLINK-5700 can be tracked NOW for your location showing map with azimuth and elevation plus other details from your city location.







IsCatalogInMostPopularTable: catalog: 55607, numindb: -1

Insert: records affected: 1


GetName: 55607 STARLINK-5700

Hit Count: inserted at: Tue, 28 Mar 2023 02:52:47 GMT